Overview Statistics Trail Chart Weather Telemetry Raw packets
 

This is the latest recevied weather packets stored in our database for station/object KI5NXU. If no packets are shown the sender has not sent any weather packets the latest 10 day(s).

<< 2 3 4 5 6 7 8 >>
Time Temp. Humidity Pressure Rain* Wind** Luminosity Snow
1788381663 38.33° C 37% 1012.2 hPa 0 mm - 637 W/m² -
1788381358 36.67° C 39% 1012.1 hPa 0 mm - 649 W/m² -
1788381057 37.78° C 39% 1012.1 hPa 0 mm - 680 W/m² -
1788380753 37.22° C 39% 1012.2 hPa 0 mm - 649 W/m² -
1788380450 37.22° C 40% 1012.2 hPa 0 mm - 625 W/m² -
1788380145 37.22° C 40% 1012.5 hPa 0 mm - 615 W/m² -
1788379839 37.22° C 39% 1012.5 hPa 0 mm - 612 W/m² -
1788379534 36.67° C 41% 1012.5 hPa 0 mm - 630 W/m² -
1788379231 37.78° C 38% 1012.9 hPa 0 mm - 231 W/m² -
1788378926 37.78° C 39% 1012.7 hPa 0 mm - 727 W/m² -
1788378624 36.67° C 40% 1012.9 hPa 0 mm - 406 W/m² -
1788378318 36.67° C 39% 1012.9 hPa 0 mm - 216 W/m² -
1788378013 37.22° C 40% 1013 hPa 0 mm - 684 W/m² -
1788377709 36.67° C 40% 1013 hPa 0 mm - 723 W/m² -
1788377434 37.22° C 40% 1013.3 hPa 0 mm - 732 W/m² -
1788377107 36.67° C 40% 1013.3 hPa 0 mm - 741 W/m² -
1788376806 36.67° C 41% 1013.4 hPa 0 mm - 724 W/m² -
1788376502 37.22° C 41% 1013.7 hPa 0 mm - 674 W/m² -
1788376196 36.67° C 40% 1013.5 hPa 0 mm - 624 W/m² -
1788375892 36.67° C 41% 1013.7 hPa 0 mm - 654 W/m² -
1788375587 36.67° C 41% 1013.7 hPa 0 mm - 726 W/m² -
1788375283 36.11° C 43% 1014 hPa 0 mm - 751 W/m² -
1788374978 35.56° C 44% 1013.8 hPa 0 mm - 530 W/m² -
1788374673 35.56° C 43% 1013.9 hPa 0 mm - 157 W/m² -
1788374369 36.11° C 42% 1013.8 hPa 0 mm - 728 W/m² -

* Rain latest hour (hover to see other rain measurements)
** Current wind speed in m/s (hover to see current wind gust speed)